Showing default

FLOCK 4G 14, 62667

Orbit data source: Space-Track

FLOCK 4G 14, 62667 is a payload satellite owned by Planet (US) in SSO that was launched on Tue, 14 Jan 2025 UTC via an FALCON 9 launch vehicle from the Air Force Western Test Range (AFWTR). Payload-class satellites include a variety of spacecraft equipped with specific instruments for various scientific and technological missions. These include communications satellites like Starlink; space stations such as the ISS; scientific satellites like the Hubble; Earth observation satellites from companies like Planet Labs, Umbra, and HawkEye 360; GPS; miniature CubeSats for education and research; and military/defense satellites.

Loading next visibility...
Identifier
62667, 2025-009BL
Orbit
SSO
Country
Flag of USUS
Related business
Manufacturer
Planet
Mission
Operational Commercial Imaging
Bus & Motor
CUBESAT 3U, Unknown motor
Mass
5.7 kg wet, 5.7 kg dry
Launch date (UTC)
2025-01-14 (1 year ago)
Launch vehicle
FALCON 9
Launch site
Air Force Western Test Range (AFWTR)
Object type
Payload
Rocket body
Debris
Shape & HBR
Box + 2 Pan, 1.0 m
Radar Cross Section
0.072 m², Medium (>0.1 m² and < 1m²)

Expand to show TLE details & history
Last TLE update: 13 hours ago

TLE from 13 hours ago
0 FLOCK 4G 14
1 62667U 25009BL  26035.26855033  .00010407  00000-0  40208-3 0  9990
2 62667  97.4129 117.9432 0005568  77.1414 283.0446 15.26422908 58601
Epoch: 2026-02-04T06:26Z
TLE epoch observation values (Epoch: 2026-02-04T06:26:42.748Z)
Latitude
-0.00006°
Longitude
-113.17247°
Altitude
488.754 km
Speed
7.621 km/s
True Right ascension
07h 51m 46s
True Declination
0° 00' 00"
Sunlit
Object was in full shadow at epoch
Visualization orbit readout
Latitude
Unknown
Longitude
Unknown
Altitude
Unknown
Speed
Unknown
Apparent Right ascension
Unknown
Apparent Declination
Unknown
Sunlit
N/A
Visualization observer readout
Local Sidereal Time
21:39:43
Azimuth
Unknown
Elevation
Unknown
Doppler factor
Unknown
Orbital elements
Apogee altitude
487.294 km
Perigee altitude
479.653 km
Semi-major axis
6,861.611 km
Eccentricity
0.00056
Inclination
97.4129°
RAAN
117.9432°
Arg. of periapsis
77.1414°
True anomaly
282.98243°
Mean anomaly
283.0446°
Eccentric anomaly
283.01352°
Mean motion
3.8186 °/min
Orbital period
94.28 mins
BSTAR
0.00040208
Loading maneuver chart data...
Computing Atmospheric mass density...
Loading historical data...
Loading historical data...
Loading historical data...
Loading historical data...
Loading historical data...
Loading historical data...
Loading historical data...

Documentation

Showing up to 5 results
|